TimeEDT,TemperatureF,Dew PointF,Humidity,Sea Level PressureIn,VisibilityMPH,Wind Direction,Wind SpeedMPH,Gust SpeedMPH,PrecipitationIn,Events,Conditions,WindDirDegrees,DateUTC
12:54 AM,55.0,54.0,96,29.89,9.0,West,4.6,-,N/A,,Overcast,280,2013-04-29 04:54:00
1:54 AM,55.0,53.1,93,29.90,9.0,SW,3.5,-,N/A,,Overcast,230,2013-04-29 05:54:00
2:54 AM,55.0,53.1,93,29.89,9.0,WSW,3.5,-,N/A,,Overcast,250,2013-04-29 06:54:00
3:54 AM,55.0,53.1,93,29.90,8.0,WSW,3.5,-,N/A,,Overcast,250,2013-04-29 07:54:00
4:29 AM,55.4,53.6,94,29.90,8.0,West,3.5,-,N/A,,Overcast,260,2013-04-29 08:29:00
4:54 AM,55.0,53.1,93,29.91,8.0,WSW,4.6,-,N/A,,Overcast,250,2013-04-29 08:54:00
5:18 AM,55.4,51.8,88,29.92,8.0,West,5.8,-,N/A,,Overcast,260,2013-04-29 09:18:00
5:54 AM,54.0,51.1,90,29.93,8.0,West,4.6,-,N/A,,Overcast,260,2013-04-29 09:54:00
6:54 AM,53.1,50.0,89,29.95,9.0,West,6.9,-,N/A,,Overcast,270,2013-04-29 10:54:00
7:54 AM,53.1,50.0,89,29.95,10.0,West,3.5,-,N/A,,Overcast,260,2013-04-29 11:54:00
8:54 AM,53.1,50.0,89,29.97,10.0,SW,4.6,-,N/A,,Overcast,220,2013-04-29 12:54:00
9:54 AM,55.0,51.1,86,29.98,10.0,WSW,3.5,-,N/A,,Overcast,250,2013-04-29 13:54:00
10:54 AM,57.0,51.1,81,29.97,10.0,Variable,4.6,-,N/A,,Overcast,0,2013-04-29 14:54:00
11:54 AM,61.0,53.1,75,29.96,10.0,SSW,5.8,-,N/A,,Partly Cloudy,210,2013-04-29 15:54:00
12:54 PM,64.0,54.0,70,29.95,10.0,South,5.8,-,N/A,,Partly Cloudy,190,2013-04-29 16:54:00
1:54 PM,64.9,52.0,63,29.93,10.0,South,6.9,-,N/A,,Mostly Cloudy,190,2013-04-29 17:54:00
2:54 PM,66.9,53.1,61,29.92,10.0,South,10.4,16.1,N/A,,Mostly Cloudy,180,2013-04-29 18:54:00
3:54 PM,68.0,52.0,56,29.90,10.0,SSW,6.9,16.1,N/A,,Partly Cloudy,210,2013-04-29 19:54:00
4:54 PM,69.1,51.1,53,29.88,10.0,South,11.5,-,N/A,,Partly Cloudy,180,2013-04-29 20:54:00
5:54 PM,69.1,50.0,51,29.87,10.0,South,10.4,-,N/A,,Clear,180,2013-04-29 21:54:00
6:54 PM,68.0,50.0,52,29.87,10.0,Variable,6.9,16.1,N/A,,Clear,0,2013-04-29 22:54:00
7:54 PM,66.9,50.0,54,29.86,10.0,South,8.1,-,N/A,,Clear,180,2013-04-29 23:54:00
8:54 PM,64.0,51.1,63,29.86,10.0,South,4.6,-,N/A,,Clear,170,2013-04-30 00:54:00
9:54 PM,61.0,52.0,72,29.88,10.0,SSE,3.5,-,N/A,,Clear,150,2013-04-30 01:54:00
10:54 PM,57.9,52.0,81,29.88,10.0,SSE,5.8,-,N/A,,Clear,150,2013-04-30 02:54:00
11:54 PM,57.0,51.1,81,29.89,10.0,SE,3.5,-,N/A,,Clear,130,2013-04-30 03:54:00